Location: Newark
(23.1300°N, 73.6109°E)
Time: 12:04:50
(UTC+00:00)

AO-7 - Visible Passes

Search period start: 07 July 2020 00:00
Search period end: 17 July 2020 00:00
Orbit: 1440 x 1459 km, 101.8° (Epoch: 06 July)

Date Brightness Start Highest point End Pass type
(mag) Time Alt. Az. Time Alt. Az. Time Alt. Az.
07 Jul ? 22:11:03 10° NNE 22:19:03 48° ESE 22:26:13 13° S visible
08 Jul ? 21:14:18 10° ENE 21:18:52 16° E 21:23:25 10° SE visible
08 Jul ? 23:03:32 10° N 23:11:53 75° WNW 23:20:05 11° SSW visible
09 Jul ? 22:04:12 10° NNE 22:12:01 43° ESE 22:19:01 13° SSE visible
09 Jul ? 23:57:18 10° N 00:04:23 32° WNW 00:11:27 10° SW visible
10 Jul ? 21:08:14 10° ENE 21:11:48 13° E 21:15:21 10° ESE visible
10 Jul ? 22:56:30 10° NNE 23:04:54 83° WNW 23:12:52 12° SSW visible
11 Jul ? 21:57:24 10° NE 22:05:00 38° ESE 22:11:49 13° SSE visible
11 Jul ? 23:50:05 10° N 23:57:26 36° WNW 00:04:47 10° SW visible
12 Jul ? 21:02:47 10° E 21:04:44 11° E 21:06:40 10° ESE visible
12 Jul ? 22:49:30 10° NNE 22:57:54 89° ESE 23:05:40 13° SSW visible
13 Jul ? 21:50:38 10° NE 21:57:57 33° ESE 22:04:36 12° SSE visible
13 Jul ? 23:42:55 10° N 23:50:30 40° WNW 23:58:05 10° SW visible
14 Jul ? 22:42:30 10° NNE 22:50:54 80° ESE 22:58:28 14° SSW visible
15 Jul ? 21:43:55 10° NE 21:50:55 29° E 21:57:24 12° SSE visible
15 Jul ? 23:35:45 10° N 23:43:33 45° WNW 23:51:20 10° SW visible
16 Jul ? 22:35:33 10° NNE 22:43:54 72° ESE 22:51:15 14° S visible
